Temperature
17 17 17 17 17 17 17 17 17 17 17 17 17 16 16 16 15 15 14 14 14 14 14 14 14 14 14 14 14 14 14 14 14 14 14 15 15 15 15 15 15 16 16
17 17 17 17 17 17 17 17 17 17 17 17 17 16 16 15 15 15 14 14 14 13 13 13 13 13 13 13 13 13 14 14 14 14 14 14 14 14 14 15 15 15 15
17 17 17 17 17 17 17 17 17 17 17 17 17 16 16 15 15 15 14 14 14 13 13 13 13 13 13 13 13 13 13 13 13 14 14 14 14 14 14 14 14 15 15
17 17 17 17 17 17 17 17 17 17 17 17 17 16 16 16 15 15 14 14 14 13 13 13 13 13 13 13 13 13 13 13 13 13 13 13 13 14 14 14 14 14 14
18 18 18 18 17 17 17 17 17 17 17 17 17 16 16 15 15 15 14 14 14 13 13 13 12 12 12 12 12 13 13 13 13 13 13 13 13 13 13 14 14 14 14
18 18 18 18 18 18 18 17 17 18 17 17 17 16 16 16 15 15 15 14 14 14 13 13 13 12 12 12 12 12 12 12 12 12 12 12 12 12 12 13 13 14 14
18 18 18 18 18 18 18 18 18 18 18 17 17 16 16 16 16 15 15 14 14 14 14 13 13 12 12 12 12 12 12 12 12 12 12 12 12 12 12 12 12 12 13
19 19 19 19 19 19 19 18 18 18 18 18 17 17 16 16 16 15 15 15 14 14 14 14 13 13 12 12 12 12 12 12 11 11 11 11 11 11 11 11 11 11 12
20 20 20 20 20 19 19 19 19 19 18 18 18 17 17 16 16 15 15 15 15 14 14 14 13 13 13 12 12 12 12 11 11 11 11 11 11 11 11 11 11 10 10
21 21 20 20 20 20 20 20 19 19 19 18 18 17 17 17 16 16 15 15 15 15 15 14 14 13 13 13 12 12 12 12 11 11 11 11 11 11 11 10 10 10 10
22 22 21 21 21 21 20 20 20 19 19 19 18 18 17 17 17 16 16 16 16 15 15 15 14 14 13 13 13 12 12 12 12 11 11 11 11 11 11 10 10 10 10
23 23 22 22 21 21 21 21 20 20 20 19 19 18 18 17 17 17 17 17 16 16 15 15 15 14 14 13 13 13 12 12 12 12 11 11 11 11 11 10 10 10 10
23 23 23 22 22 22 22 21 21 21 20 20 19 19 18 18 18 18 18 17 17 17 16 16 16 15 15 14 14 13 13 13 12 12 12 11 11 11 11 10 10 10 10
23 23 23 23 23 23 22 22 21 21 21 20 20 19 19 19 19 18 18 18 17 17 17 16 16 16 15 15 14 14 14 13 13 12 12 12 11 11 11 10 10 10 10
23 23 23 23 23 23 23 22 22 21 21 20 20 20 20 19 19 19 19 18 18 18 17 17 17 16 16 16 15 15 14 14 13 13 13 12 12 11 11 11 10 10 10
22 23 23 23 23 23 23 23 22 22 21 21 20 20 20 19 19 19 19 18 18 18 17 17 17 17 16 16 15 15 15 14 14 14 13 13 12 12 11 11 11 10 10
21 22 22 22 23 23 23 22 22 21 21 21 20 20 20 19 19 19 19 18 18 18 18 17 17 17 17 16 16 15 15 15 14 14 13 13 13 12 11 11 11 10 10
20 21 21 22 22 22 22 22 21 21 20 20 20 19 19 19 19 19 18 18 18 18 17 17 17 17 17 16 15 15 14 14 14 14 14 13 13 12 12 11 11 11 10
19 20 20 20 21 21 21 20 20 19 19 19 19 18 18 18 18 18 18 18 17 17 17 17 16 16 16 16 15 15 14 14 14 14 14 13 13 13 11 11 11 11 11
18 18 19 19 19 19 19 19 18 18 17 17 17 17 17 17 17 17 17 16 16 16 16 16 16 15 15 15 15 15 14 14 14 14 14 13 13 13 12 11 11 11 11
17 17 18 17 17 17 17 17 16 16 15 15 15 16 16 16 16 15 15 15 15 15 15 15 15 15 15 15 14 14 14 13 13 13 13 13 13 12 12 11 11 11 11
16 16 16 16 15 15 16 16 15 14 14 14 14 14 14 14 14 14 14 13 13 13 13 13 13 14 14 14 14 13 13 13 12 12 13 13 13 12 12 11 11 11 10
15 15 15 15 14 14 14 14 13 13 13 13 13 12 12 12 12 12 12 12 12 12 12 12 12 12 12 13 13 13 12 12 12 12 12 12 12 12 11 11 11 10 10
14 14 14 13 13 13 12 12 12 11 11 11 11 11 11 11 11 11 11 11 11 10 10 11 11 11 11 11 12 12 12 12 11 11 11 11 11 11 11 11 11 10 10
13 13 13 12 12 12 11 11 11 11 11 10 10 10 10 10 10 10 10 9 9 9 9 9 9 9 10 10 10 10 10 11 11 11 10 11 11 11 11 11 10 10 10
12 12 12 11 11 11 10 10 10 10 10 10 10 9 9 9 9 9 9 9 9 9 9 9 9 9 9 9 9 10 10 10 10 10 10 10 10 11 11 10 10 10 10
Wind_Speed
5 5 6 8 8 6 6 7 8 7 7 5 4 4 3 2 1 1 2 3 4 5 6 4 5 4 4 3 3 2 4 4 3 2 3 3 4 4 5 5 4 5 3
7 7 8 8 9 9 8 7 8 8 7 5 4 3 3 2 2 1 1 2 3 4 4 4 3 3 4 4 4 3 2 3 4 2 2 2 3 4 5 5 6 6 6
11 10 10 9 10 10 11 10 9 8 7 6 5 4 4 3 2 1 1 2 3 3 4 4 4 3 3 3 3 3 3 2 3 3 2 2 1 2 3 4 5 6 6
9 9 10 10 11 12 10 8 8 7 6 7 6 6 5 4 5 3 3 2 3 3 4 4 4 3 2 2 2 2 2 3 2 2 3 2 1 1 1 3 3 5 6
9 10 11 11 11 10 9 8 7 7 6 7 7 6 4 4 3 2 3 2 2 3 4 5 5 4 2 2 2 2 2 2 2 1 1 2 2 2 1 1 4 4 3
9 9 9 8 8 8 8 8 8 7 7 7 7 7 7 6 5 4 4 3 2 2 4 6 5 4 3 3 3 2 3 2 2 1 1 1 1 1 1 0 1 3 3
10 10 10 9 9 9 9 9 9 8 8 8 8 8 8 8 8 6 6 4 3 3 5 5 5 4 5 4 4 3 2 3 2 2 1 2 1 2 2 1 1 2 2
10 12 12 11 11 11 10 10 10 10 9 9 9 8 8 6 6 6 6 6 5 5 4 6 6 6 6 5 4 3 3 3 3 3 3 2 2 3 3 3 2 1 2
12 12 12 12 12 11 12 12 12 11 10 10 9 8 8 8 7 7 6 5 5 4 5 6 6 6 6 6 5 4 4 4 4 4 4 3 3 3 4 3 3 3 2
11 11 12 12 12 12 11 10 11 12 11 10 10 9 9 9 8 7 7 7 6 5 6 6 6 6 6 6 5 5 5 5 5 4 5 4 3 4 4 4 4 5 4
13 12 12 11 11 10 9 10 10 10 10 11 10 9 9 9 8 8 8 8 7 7 7 7 7 7 7 6 6 7 6 6 6 5 6 7 5 4 4 4 5 5 5
11 11 11 10 10 10 10 11 11 11 11 11 10 11 9 9 9 10 10 8 8 8 8 7 7 8 8 7 8 8 8 8 8 8 7 8 6 6 6 5 6 6 7
10 9 9 10 11 11 11 11 12 12 11 10 10 10 10 10 11 11 10 9 9 9 8 8 9 9 9 9 9 9 9 9 9 9 8 9 7 8 7 7 7 6 6
9 9 10 10 11 11 11 11 12 11 10 10 11 12 12 13 12 11 10 10 10 10 10 10 10 10 9 9 9 9 9 9 9 9 9 10 9 10 9 8 8 7 7
5 8 9 9 8 8 9 9 10 9 10 10 12 13 12 11 10 10 11 10 10 11 10 10 10 10 9 9 10 10 10 10 10 10 10 10 12 13 11 8 9 8 8
2 3 4 5 7 8 9 9 9 8 9 10 12 10 8 9 10 11 10 10 11 10 10 11 11 11 10 13 15 12 10 10 11 11 10 10 12 14 15 16 14 12 10
3 2 1 2 3 4 5 6 6 5 6 8 7 7 7 9 10 9 9 11 11 10 11 12 11 12 14 16 16 17 12 11 11 12 11 10 10 12 11 12 14 14 16
7 6 5 4 3 2 1 2 3 4 4 4 5 5 5 7 6 7 10 10 9 9 10 11 12 13 14 17 18 17 14 12 13 13 13 12 12 11 11 11 11 12 12
7 7 8 7 8 7 5 6 6 5 3 1 2 2 3 5 5 8 10 8 7 9 10 8 11 13 15 17 18 17 10 12 14 14 14 14 14 15 15 12 13 13 13
9 10 10 11 13 10 8 10 9 8 6 5 4 3 2 3 5 6 7 6 6 9 8 10 11 12 14 15 18 17 10 12 13 12 13 16 17 17 16 14 13 15 14
10 11 13 13 11 9 11 12 11 10 7 6 6 6 5 3 3 4 3 4 5 6 8 10 10 11 13 14 16 17 12 13 13 12 12 12 18 20 19 17 15 17 14
10 11 11 11 9 8 11 12 9 6 6 7 8 8 7 6 6 5 5 4 4 6 7 8 9 8 10 12 14 17 19 16 14 13 12 12 17 19 19 16 17 18 14
8 7 9 9 8 8 8 9 6 5 6 8 8 7 7 7 6 5 6 5 4 5 6 7 8 8 7 9 15 17 18 20 16 14 16 16 16 16 14 17 18 14 11
6 5 7 8 7 6 7 5 4 5 6 6 6 6 6 7 7 5 5 5 5 6 6 7 8 9 8 8 8 8 9 13 15 14 15 17 16 14 13 11 11 11 11
4 4 5 5 4 4 5 4 4 4 5 5 5 5 5 5 6 6 5 5 5 6 7 7 8 9 10 11 13 11 10 10 10 9 8 8 9 10 10 10 10 10 10
3 3 3 2 1 2 3 4 4 3 3 4 5 4 5 5 5 6 8 8 9 12 13 12 11 10 14 17 19 18 17 18 14 8 9 11 11 12 12 11 11 10 10
Wind_Direction
154 143 146 148 146 144 152 157 152 150 142 135 132 129 136 138 137 156 151 137 124 114 99 90 72 68 74 72 79 86 60 35 8 46 21 5 20 42 36 29 36 29 8
166 162 160 160 164 166 174 175 174 168 165 150 140 137 133 141 154 142 159 179 158 142 119 108 96 85 86 71 62 76 82 35 24 70 78 26 5 6 18 24 35 31 35
181 178 175 174 173 181 187 187 187 177 168 143 118 99 83 74 86 154 215 219 194 172 141 132 120 106 100 94 77 80 99 88 34 39 110 124 174 324 341 9 23 23 32
181 179 180 181 183 189 187 186 184 178 169 156 154 152 159 174 199 194 201 216 205 191 173 160 149 135 122 115 99 88 91 106 70 36 43 74 135 110 350 340 358 10 25
185 186 185 186 187 184 184 184 181 183 175 170 170 163 166 177 169 167 192 212 230 216 198 184 172 160 153 145 124 111 104 103 113 90 73 73 63 67 105 333 338 348 353
189 191 185 181 186 185 183 180 183 193 183 176 175 178 177 172 168 183 196 211 223 233 215 196 188 182 176 174 167 153 139 136 128 128 122 129 123 116 119 165 313 320 318
186 189 190 192 195 193 191 187 189 200 191 184 188 191 187 180 187 191 196 197 204 216 216 197 192 194 198 195 182 178 182 176 171 177 182 183 189 170 157 165 235 294 307
191 196 198 199 202 202 198 193 197 204 194 193 199 196 189 187 196 196 192 198 206 214 208 199 201 205 202 200 193 198 207 198 200 203 196 200 208 192 185 179 174 268 304
198 202 202 202 205 205 204 200 201 205 200 200 197 196 195 195 200 200 197 203 211 218 209 204 204 209 209 206 196 212 219 208 216 221 217 219 221 208 209 200 189 190 250
203 206 206 207 209 209 206 200 202 206 203 198 199 204 201 202 201 193 201 207 212 213 205 208 212 214 215 212 207 221 224 219 227 221 222 231 232 220 213 211 210 207 214
205 207 209 209 207 206 201 201 204 204 201 201 201 201 202 201 197 202 209 208 209 209 211 212 213 217 221 217 214 225 224 227 236 231 227 237 232 229 224 214 212 213 209
209 207 204 201 201 204 204 204 204 205 207 202 198 203 202 196 201 211 214 208 211 213 215 214 216 222 225 220 218 229 229 228 237 239 233 241 236 232 231 222 223 223 217
211 206 201 201 205 206 205 206 206 209 205 195 197 202 203 203 210 215 215 210 213 217 217 215 220 226 227 225 224 227 232 232 236 238 236 241 235 238 235 228 232 234 232
210 207 209 211 209 206 204 205 209 205 197 193 198 206 211 211 214 215 213 213 213 216 219 220 223 227 228 229 229 229 233 236 238 238 237 239 234 236 236 233 234 235 238
215 211 212 215 212 210 209 208 210 200 193 193 205 215 216 213 214 215 215 215 215 220 220 222 227 229 229 232 229 229 233 236 242 243 240 239 237 236 234 234 234 230 236
252 237 224 215 211 211 211 208 209 200 189 201 216 222 216 217 221 222 219 218 220 221 219 224 228 230 233 230 224 221 231 233 238 244 244 243 246 246 244 240 235 225 231
25 24 298 254 244 231 212 210 212 183 185 209 222 220 215 223 228 228 225 226 226 222 224 228 227 233 235 230 229 224 225 232 236 238 242 246 244 237 243 247 248 243 236
33 32 30 27 11 16 81 120 111 135 174 214 237 238 230 235 235 227 231 233 228 226 232 234 232 234 239 230 229 228 228 235 238 237 236 240 246 240 234 243 250 251 248
43 45 43 46 46 44 56 81 77 78 76 359 307 285 244 240 239 238 241 237 230 234 234 237 236 237 244 233 227 223 228 236 241 239 236 235 243 239 227 235 248 255 256
51 52 51 52 51 44 60 70 63 56 38 16 1 346 296 257 253 254 255 247 238 247 250 249 245 243 248 242 229 220 225 235 243 243 239 233 234 236 223 228 236 248 254
56 59 59 55 46 44 65 66 58 46 29 30 32 23 8 334 309 304 288 275 263 263 260 260 258 251 251 253 241 224 221 231 239 242 243 239 228 230 228 222 230 238 242
59 64 68 59 42 43 65 65 52 30 29 36 34 22 12 8 6 351 332 316 298 286 281 278 278 268 259 253 251 235 226 228 235 241 244 241 228 225 227 225 230 233 235
66 65 77 68 47 39 58 64 33 20 36 39 30 16 11 5 358 355 346 337 328 312 301 293 289 287 277 263 253 250 240 233 236 245 244 241 234 227 231 232 228 227 229
77 75 78 72 51 35 46 51 26 28 45 38 19 8 6 358 354 351 343 334 325 316 311 306 300 298 294 286 278 267 259 247 243 248 249 244 240 235 235 234 230 226 223
80 80 85 80 53 27 28 19 17 31 37 23 6 357 353 345 339 334 319 311 292 288 294 294 293 296 295 288 285 284 280 271 260 253 245 239 235 232 231 232 232 225 221
97 94 92 89 36 8 2 353 356 15 21 2 347 338 332 330 329 328 324 310 299 301 296 280 277 282 275 284 288 282 274 268 262 249 246 240 234 233 232 231 229 224 222
Height
1513 1516 1519 1522 1526 1529 1533 1537 1540 1542 1545 1548 1550 1551 1552 1553 1553 1553 1553 1553 1552 1551 1551 1550 1550 1551 1551 1551 1552 1552 1552 1553 1553 1554 1555 1555 1556 1556 1556 1556 1557 1558 1559
1513 1516 1518 1522 1525 1529 1533 1537 1539 1542 1545 1547 1549 1551 1552 1553 1553 1553 1553 1553 1553 1552 1551 1551 1550 1550 1551 1551 1551 1551 1551 1552 1552 1553 1553 1554 1556 1555 1555 1556 1556 1556 1557
1511 1514 1517 1521 1525 1528 1532 1536 1539 1542 1545 1547 1549 1550 1551 1552 1553 1553 1553 1553 1553 1552 1552 1552 1551 1551 1551 1551 1551 1551 1551 1551 1551 1552 1553 1553 1554 1555 1556 1555 1556 1556 1556
1510 1513 1516 1520 1523 1527 1532 1536 1539 1542 1544 1546 1548 1549 1550 1551 1552 1552 1552 1553 1552 1552 1552 1552 1552 1551 1551 1551 1550 1550 1550 1550 1550 1551 1551 1553 1553 1554 1555 1556 1555 1556 1556
1509 1511 1514 1518 1522 1527 1531 1535 1538 1541 1544 1545 1547 1548 1549 1550 1551 1551 1551 1551 1552 1552 1552 1552 1552 1552 1551 1551 1550 1550 1550 1550 1550 1550 1550 1551 1552 1552 1553 1554 1555 1555 1555
1508 1511 1514 1518 1522 1526 1530 1533 1537 1539 1542 1544 1546 1547 1548 1549 1549 1549 1550 1550 1550 1551 1551 1552 1552 1551 1551 1551 1550 1550 1550 1549 1549 1549 1550 1550 1550 1551 1551 1552 1552 1552 1553
1507 1510 1513 1517 1520 1524 1528 1532 1535 1537 1540 1542 1544 1545 1546 1547 1547 1548 1548 1548 1549 1550 1550 1550 1551 1551 1550 1550 1550 1550 1549 1549 1549 1549 1549 1549 1549 1549 1550 1550 1550 1550 1550
1505 1508 1512 1515 1519 1523 1526 1529 1532 1535 1538 1540 1542 1543 1544 1545 1545 1546 1546 1547 1547 1548 1549 1549 1549 1549 1549 1549 1549 1549 1549 1548 1548 1548 1548 1548 1548 1548 1548 1548 1548 1547 1547
1503 1507 1510 1514 1517 1521 1524 1527 1530 1533 1535 1538 1540 1541 1542 1543 1543 1544 1544 1545 1546 1546 1546 1547 1547 1547 1547 1547 1547 1547 1547 1547 1547 1546 1546 1546 1546 1546 1546 1546 1546 1547 1545
1501 1504 1508 1511 1515 1518 1522 1525 1528 1530 1533 1535 1537 1538 1539 1540 1541 1542 1542 1543 1543 1544 1544 1544 1545 1545 1545 1545 1545 1545 1545 1545 1544 1544 1544 1544 1544 1543 1543 1543 1543 1543 1543
1497 1501 1504 1508 1512 1516 1519 1522 1524 1527 1529 1531 1533 1535 1536 1538 1538 1539 1539 1540 1541 1541 1541 1542 1542 1542 1542 1542 1542 1542 1542 1542 1541 1541 1541 1541 1540 1540 1540 1540 1539 1539 1538
1494 1498 1501 1505 1508 1512 1515 1517 1520 1523 1525 1528 1530 1531 1533 1534 1535 1535 1536 1537 1538 1538 1539 1539 1539 1539 1539 1539 1539 1539 1539 1538 1538 1537 1537 1537 1536 1536 1536 1536 1535 1535 1534
1491 1495 1498 1501 1504 1507 1510 1513 1516 1519 1521 1524 1525 1527 1528 1530 1530 1532 1533 1534 1535 1535 1536 1536 1536 1536 1536 1536 1535 1535 1535 1534 1534 1533 1533 1532 1532 1531 1531 1531 1531 1530 1530
1487 1490 1493 1496 1500 1503 1506 1509 1512 1514 1517 1519 1521 1522 1524 1525 1527 1528 1530 1530 1531 1532 1532 1533 1533 1533 1532 1532 1531 1531 1530 1529 1529 1528 1528 1527 1527 1526 1526 1526 1525 1525 1524
1483 1486 1489 1492 1495 1498 1501 1504 1507 1510 1512 1514 1516 1518 1520 1521 1523 1524 1525 1526 1527 1528 1528 1528 1528 1528 1528 1528 1527 1526 1525 1524 1524 1523 1522 1522 1521 1521 1520 1520 1519 1519 1518
1480 1483 1486 1488 1491 1494 1497 1500 1502 1505 1508 1510 1512 1514 1516 1517 1518 1520 1521 1522 1522 1523 1523 1523 1523 1523 1523 1523 1522 1521 1520 1519 1518 1517 1516 1516 1515 1514 1514 1513 1513 1512 1511
1479 1481 1483 1486 1488 1491 1493 1496 1499 1501 1504 1506 1508 1509 1511 1512 1513 1515 1516 1516 1517 1518 1518 1518 1518 1517 1517 1517 1516 1515 1514 1513 1512 1511 1510 1509 1508 1508 1507 1507 1506 1505 1504
1480 1481 1483 1485 1487 1489 1491 1493 1496 1498 1500 1502 1503 1505 1506 1507 1508 1509 1510 1510 1511 1511 1511 1511 1511 1510 1510 1510 1509 1508 1507 1506 1505 1504 1503 1502 1501 1501 1501 1500 1499 1498 1497
1482 1482 1484 1486 1487 1488 1490 1491 1493 1495 1496 1498 1499 1500 1501 1501 1502 1503 1503 1503 1503 1503 1502 1502 1502 1501 1501 1502 1501 1501 1499 1497 1496 1496 1495 1495 1494 1494 1494 1492 1491 1490 1490
1485 1485 1487 1487 1487 1488 1490 1490 1491 1492 1493 1494 1495 1495 1496 1496 1496 1496 1495 1495 1494 1494 1493 1493 1493 1492 1491 1492 1492 1492 1490 1488 1488 1487 1487 1486 1486 1486 1486 1484 1483 1482 1482
1488 1489 1490 1490 1491 1491 1491 1490 1490 1491 1492 1492 1492 1492 1492 1491 1490 1489 1488 1487 1486 1485 1484 1483 1483 1482 1482 1482 1482 1482 1480 1478 1478 1477 1477 1477 1477 1477 1477 1476 1475 1474 1476
1492 1492 1493 1493 1494 1494 1493 1492 1491 1492 1492 1492 1491 1490 1489 1487 1485 1483 1482 1480 1478 1477 1476 1474 1473 1472 1472 1472 1471 1471 1470 1469 1467 1466 1466 1467 1468 1467 1468 1467 1466 1467 1468
1496 1496 1496 1496 1496 1495 1495 1493 1494 1493 1492 1491 1489 1488 1486 1484 1482 1480 1478 1476 1474 1471 1469 1468 1465 1464 1463 1462 1461 1460 1459 1458 1457 1455 1456 1457 1457 1457 1457 1457 1458 1458 1458
1499 1499 1498 1498 1497 1497 1496 1495 1494 1493 1491 1490 1488 1486 1484 1481 1479 1477 1475 1472 1469 1467 1465 1462 1459 1456 1455 1454 1452 1450 1449 1448 1446 1445 1445 1445 1445 1446 1446 1447 1447 1447 1448
1500 1500 1499 1499 1498 1498 1497 1495 1494 1492 1490 1488 1486 1484 1481 1479 1476 1474 1472 1469 1467 1464 1461 1457 1454 1451 1447 1446 1444 1441 1439 1437 1436 1435 1433 1433 1433 1434 1434 1435 1436 1437 1437
1500 1500 1500 1499 1499 1497 1496 1494 1493 1491 1488 1486 1484 1481 1479 1476 1473 1470 1467 1464 1462 1459 1456 1452 1449 1444 1441 1437 1434 1432 1429 1428 1426 1424 1422 1422 1422 1422 1423 1424 1425 1426 1426